This is the latest recevied weather packets stored in our database for station/object AF9W-5. If no packets are shown the sender has not sent any weather packets the latest 10 day(s).
| Time | Temp. | Humidity | Pressure | Rain* | Wind** | Luminosity | Snow |
|---|---|---|---|---|---|---|---|
| 1788135941 | 93° F | 37% | 759.2 mmHg | 0 in | - | 29 W/m² | - |
| 1788135637 | 94° F | 36% | 759 mmHg | 0 in | - | 32 W/m² | - |
| 1788135332 | 95° F | 36% | 759.1 mmHg | 0 in | - | 44 W/m² | - |
| 1788135029 | 95° F | 35% | 759.1 mmHg | 0 in | - | 58 W/m² | - |
| 1788134725 | 94° F | 36% | 759.1 mmHg | 0 in | - | 54 W/m² | - |
| 1788134424 | 95° F | 36% | 759.2 mmHg | 0 in | - | 49 W/m² | - |
| 1788134124 | 94° F | 36% | 759.2 mmHg | 0 in | - | 56 W/m² | - |
| 1788133819 | 94° F | 35% | 759.1 mmHg | 0 in | - | 55 W/m² | - |
| 1788133514 | 94° F | 34% | 759.1 mmHg | 0 in | - | 61 W/m² | - |
| 1788133209 | 95° F | 33% | 759.2 mmHg | 0 in | - | 59 W/m² | - |
| 1788132904 | 95° F | 32% | 759.1 mmHg | 0 in | - | 67 W/m² | - |
| 1788132600 | 96° F | 32% | 759.1 mmHg | 0 in | - | 84 W/m² | - |
| 1788132296 | 96° F | 32% | 759.1 mmHg | 0 in | - | 279 W/m² | - |
| 1788131987 | 96° F | 32% | 759.3 mmHg | 0 in | - | 352 W/m² | - |
| 1788131682 | 97° F | 32% | 759.4 mmHg | 0 in | - | 371 W/m² | - |
| 1788131381 | 97° F | 31% | 759.3 mmHg | 0 in | - | 384 W/m² | - |
| 1788131077 | 97° F | 32% | 759.5 mmHg | 0 in | - | 399 W/m² | - |
| 1788130775 | 97° F | 32% | 759.5 mmHg | 0 in | - | 409 W/m² | - |
| 1788130471 | 98° F | 32% | 759.7 mmHg | 0 in | - | 420 W/m² | - |
| 1788130165 | 97° F | 33% | 759.5 mmHg | 0 in | - | 437 W/m² | - |
| 1788129864 | 96° F | 33% | 759.7 mmHg | 0 in | - | 453 W/m² | - |
| 1788129561 | 98° F | 33% | 759.9 mmHg | 0 in | - | 468 W/m² | - |
| 1788129258 | 97° F | 34% | 759.9 mmHg | 0 in | - | 482 W/m² | - |
| 1788128956 | 95° F | 34% | 759.8 mmHg | 0 in | - | 496 W/m² | - |
| 1788128652 | 96° F | 34% | 759.9 mmHg | 0 in | - | 508 W/m² | - |
* Rain latest hour (hover to see other rain measurements)
** Current wind speed in m/s (hover to see current wind gust speed)